GW2240 Weather Reports


time (UTC)temp
F
wind
direction
speed
knots
gust
knots
rain 1hr
in
rain 24hr
in
rain mn
in
humidity
%
barometer
mb
20260505014527 74 121 0.0 0.0 0.00 0.00 0.00 77 1010.4
20260505013027 74 154 0.0 0.0 0.00 0.00 0.00 77 1010.2
20260505011528 74 148 0.0 0.9 0.00 0.00 0.00 76 1010.2
20260505010027 75 148 0.0 0.0 0.00 0.00 0.00 75 1010.3
20260505004525 76 148 0.0 0.0 0.00 0.00 0.00 73 1010.3
20260505003026 76 148 0.0 1.7 0.00 0.00 0.00 73 1010.1
20260505001524 77 111 0.0 0.0 0.00 0.00 0.00 72 1010.1
20260505000039 77 144 0.0 1.7 0.00 0.00 0.00 71 1010.3
20260504234525 77 173 0.0 0.9 0.00 0.00 0.00 72 1010.5
20260504233022 77 191 0.0 1.7 0.00 0.00 0.00 71 1010.3
20260504231520 78 164 0.0 1.7 0.00 0.00 0.00 70 1010.5
20260504230018 79 173 0.0 1.7 0.00 0.00 0.00 67 1010.8
20260504224518 79 148 0.0 1.7 0.00 0.00 0.00 68 1010.7
20260504223017 79 159 0.0 1.7 0.00 0.00 0.00 68 1010.9
20260504221525 79 144 0.0 1.7 0.00 0.00 0.00 67 1011.0
20260504220030 79 173 0.0 0.9 0.00 0.00 0.00 68 1011.2
20260504214513 79 209 0.0 0.0 0.00 0.00 0.00 66 1011.3
20260504213015 80 164 0.0 0.9 0.00 0.00 0.00 66 1011.4
20260504211511 80 173 0.0 1.7 0.00 0.00 0.00 67 1011.8
20260504210010 79 179 0.0 0.0 0.00 0.00 0.00 66 1011.9
20260504204508 79 140 0.0 1.7 0.00 0.00 0.00 65 1012.2
20260504203007 81 159 0.0 0.0 0.00 0.00 0.00 65 1012.2
20260504201504 80 144 0.0 1.7 0.00 0.00 0.00 64 1012.7
20260504200005 80 189 0.0 0.0 0.00 0.00 0.00 64 1012.9
20260504194502 81 52 0.0 1.7 0.00 0.00 0.00 63 1013.1
20260504193002 81 173 0.0 1.7 0.00 0.00 0.00 61 1013.2
20260504191600 86 179 0.0 1.7 0.00 0.00 0.00 53 1013.4
20260504190108 80 186 0.0 1.7 0.00 0.00 0.00 62 1013.9
20260504184556 81 198 0.0 1.7 0.00 0.00 0.00 60 1013.9
20260504183100 80 182 0.0 1.7 0.00 0.00 0.00 61 1014.0
20260504181553 81 183 0.0 1.7 0.00 0.00 0.00 62 1014.1
20260504180130 80 202 0.0 1.7 0.00 0.00 0.00 62 1014.2
20260504174547 80 204 0.0 0.9 0.00 0.00 0.00 62 1014.4
20260504173047 79 177 0.0 1.7 0.00 0.00 0.00 63 1014.7
20260504171548 79 148 0.0 1.7 0.00 0.00 0.00 60 1014.9
20260504140104 65 155 0.0 1.7 0.00 0.00 0.00 84 1016.0
20260504081529 58 110 0.0 0.0 0.00 0.00 0.00 87 1016.3
20260504050001 61 110 0.0 0.0 0.00 0.00 0.00 77 1018.3
20260504044504 62 110 0.0 0.0 0.00 0.00 0.00 76 1018.4
20260504043001 62 110 0.0 0.0 0.00 0.00 0.00 73 1018.5
20260504041600 63 110 0.0 0.0 0.00 0.00 0.00 71 1018.4
20260504040105 64 110 0.0 0.0 0.00 0.00 0.00 70 1018.5
20260504034617 64 110 0.0 0.0 0.00 0.00 0.00 69 1018.4
20260504033104 65 110 0.0 0.0 0.00 0.00 0.00 66 1018.4
20260504031604 65 110 0.0 0.0 0.00 0.00 0.00 67 1018.4
20260504030057 65 194 0.0 0.0 0.00 0.00 0.00 68 1018.3
20260504024559 66 194 0.0 0.0 0.00 0.00 0.00 66 1018.0
20260504023056 66 194 0.0 0.0 0.00 0.00 0.00 66 1017.9
20260504021557 66 194 0.0 0.0 0.00 0.00 0.00 66 1017.9
20260504020104 67 194 0.0 0.0 0.00 0.00 0.00 64 1017.6